Tracking 19969 objects as of 14-Nov-2019
Live streaming from Space Station
objects crossing your sky now
Track the group of recently launched Starlink satellites

DELTA 1 DEB

Track DELTA 1 DEB now!
10-day predictions


NORAD ID: 12193
Int'l Code: 1978-026AJ
Perigee: 791.2 km
Apogee: 1,183.0 km
Inclination: 98.9 °
Period: 104.7 minutes
Semi major axis: 7358 km
RCS: 0.0173 m2 (small)
Launch date: March 5, 1978
Source: United States (US)
Launch site: AIR FORCE WESTERN TEST RANGE (AFWTR)

Note: This is SATELLITE DEBRIS
aabbcc
Your satellite tracking list
Your tracking list is empty




NASA's NSSDC Master Catalog

Two Line Element Set (TLE):
1 12193U 78026AJ  19317.31292391  .00000765  00000-0  64560-3 0  9992
2 12193  98.8910 257.6120 0266237 177.6297 182.6186 13.75471209919247
Source of the keplerian elements: AFSPC